Location: Lower Kingswood
(51.2667°N, 0.2167°W)
Time: 20:15:39
(UTC+00:00)

Cosmos 1766 Rocket - Pass Details

Date: 26 September 2023
Orbit: 602 x 630 km, 82.5° (Epoch: 08 December)

Event Time Altitude Azimuth Distance (km) Brightness Sun altitude
Rises 03:41:23 0° 347° (NNW) 2,885 7.2 -20.7°
Reaches altitude 10° 03:43:37 10° 345° (NNW) 1,980 6.3 -20.4°
Maximum altitude 03:47:58 67° 263° (W) 672 3.4 -19.8°
Enters shadow 03:50:34 23° 186° (S) 1,304 4.9 -19.4°
